Preview of NWS' New Version of Forecast
This preview is not operational and should not be used for support decisions.
Latest weather observations around

San Diego, San Diego International-Lindbergh Field (KSAN)

Using English Units (Switch to International System of Units)
Date/ Time (PDT) Wind (mph) Vis. (mi) Weather Sky Cond. Temp (°F) Rel. Humidity Wind Chill (°F) Heat Index (°F) Pressure Precip. (in)
Air Dwpt 6 hour Altimeter (inHg) Sea level (inHg) 1 hr 3 hr 6 hr
Max Min
Sep 19 15:51 W 10 10 Mostly Cloudy BKN022 73 60     64%   73 29.86 29.85      
Sep 19 15:32 W 11 10 Mostly Cloudy BKN022 73 61     66%   73 29.86        
Sep 19 14:51 W 13 10 Partly Cloudy SCT022 74 61     64%   74 29.87 29.87      
Sep 19 13:51 SSW 10 10 Mostly Clear FEW025 73 61     66%   73 29.89 29.88      
Sep 19 12:51 SSW 10 10 Mostly Clear FEW025 73 60     64%   73 29.9 29.9      
Sep 19 11:51 SW 9 10 Mostly Clear FEW025 73 59     61%   73 29.91 29.91      
Sep 19 10:51 SSW 8 10 Partly Cloudy SCT025 72 59     64%   72 29.92 29.92      
Sep 19 10:17 SW 6 10 Partly Cloudy SCT025 72 59     64%   72 29.93        
Sep 19 09:51 5 9 Mostly Cloudy BKN023 71 59     66%   71 29.93 29.93      
Sep 19 09:46 5 9 Mostly Cloudy BKN023 72 59     65%   71 29.93        
Sep 19 09:16 SE 6 8 Partly Cloudy SCT023 70 59     68%     29.93        
Sep 19 08:51 3 7 Mostly Cloudy BKN023 69 59     70%     29.93 29.93      
Sep 19 07:51 SSE 7 9 Mostly Cloudy BKN021 67 59     76%     29.92 29.92      
Sep 19 07:19 ESE 7 9 Mostly Cloudy BKN020 66 59     78%     29.91        
Sep 19 06:51 SE 10 9 Mostly Clear FEW015 66 60     81%     29.9 29.9      
Sep 19 06:12 SE 6 9 Partly Cloudy SCT015 66 60     81%     29.91        
Sep 19 05:51 ESE 7 10 Mostly Cloudy BKN015 66 60     81%     29.91 29.91      
Sep 19 05:08 E 7 10 Mostly Cloudy BKN015 66 61     84%     29.91        
Sep 19 04:51 SE 7 10 Partly Cloudy SCT015 66 61     84%     29.91 29.91      
Sep 19 03:51 S 3 10 Partly Cloudy SCT014 67 61     81%     29.92 29.91      
Sep 19 03:42 S 7 10 Partly Cloudy SCT014 67 61     81%     29.92        
Sep 19 02:51 S 6 10 Mostly Cloudy BKN014 67 61     81%     29.92 29.92      
Sep 19 01:51 S 6 10 Cloudy OVC013 67 62     84%     29.92 29.92      
Sep 19 01:21 SSW 5 10 Mostly Cloudy BKN013 67 63     87%     29.92        
Sep 19 00:51 S 7 10 Clear CLR 67 62     84%     29.92 29.92      
Sep 18 23:51 S 7 10 Partly Cloudy SCT014 68 62     81%     29.91 29.91      
Sep 18 22:51 Calm 10 Partly Cloudy SCT014 68 62     81%     29.91 29.91      
Sep 18 21:51 S 5 10 Partly Cloudy SCT014 68 63     84%     29.91 29.91      
Sep 18 20:51 SW 6 10 Mostly Clear FEW014 69 63     81%     29.91 29.91      
Sep 18 19:51 WSW 6 10 Partly Cloudy SCT014 69 63     81%     29.9 29.9      
Sep 18 18:51 W 5 10 Mostly Clear FEW016 70 63     78%     29.89 29.89      
Sep 18 17:51 NW 7 10 Mostly Clear FEW017 72 61     68%   72 29.89 29.88      
Sep 18 16:51 W 7 10 Mostly Clear FEW017 73 60     64%   73 29.89 29.89      
Sep 18 15:51 7 10 Mostly Clear FEW017 74 61     64%   74 29.9 29.9      
Sep 18 14:51 WSW 8 10 Mostly Clear FEW017 74 61     64%   74 29.92 29.92      
Sep 18 12:51 SW 8 10 Mostly Clear FEW017 75 61     62%   75 29.94 29.93      
Sep 18 11:51 W 9 10 Mostly Clear FEW017 74 60     62%   74 29.95 29.95      
Sep 18 10:51 SW 7 9 Mostly Clear FEW017 73 60     64%   73 29.96 29.96      
Sep 18 09:51 Calm 9 Mostly Clear FEW017 71 61     70%   71 29.96 29.96      
Sep 18 09:27 W 5 9 Partly Cloudy SCT017 70 62     76%     29.96        
Notice The following observation data may not be complete
Sep 18 08:51   9 Mostly Cloudy BKN016          %              
Sep 18 06:51 5 9 Mostly Cloudy BKN013 67 63     87%     29.94 29.93      
Sep 18 05:51 Calm 10 Mostly Cloudy BKN014 BKN025 64 61     90%     29.93 29.93      
Sep 18 05:06 Calm 10 Mostly Cloudy BKN014 BKN025 63 60     90%     29.92        
Sep 18 04:51 Calm 10 Mostly Clear FEW014 FEW025 63 61     93%     29.92 29.92      
Sep 18 03:51 Calm 10 Mostly Clear FEW014 FEW025 64 61     90%     29.92 29.91      
Sep 18 02:51 Calm 10 Mostly Clear FEW014 64 61     90%     29.92 29.91      
Sep 18 01:51 Calm 10 Mostly Clear FEW014 65 61     87%     29.92 29.92      
Sep 18 00:51 Calm 10 Mostly Clear FEW014 66 62     87%     29.92 29.92      
Sep 17 23:51 Calm 10 Clear CLR 67 62     84%     29.92 29.92      
Sep 17 22:51 Calm 10 Clear CLR 68 63     84%     29.93 29.93      
Sep 17 21:51 WNW 3 10 Partly Cloudy FEW015 SCT030 68 64     87%     29.93 29.93      
Sep 17 20:51 W 5 10 Mostly Clear FEW015 69 63     81%     29.93 29.93      
Sep 17 19:51 NW 5 10 Clear   69 63     81%     29.91 29.91      
Sep 17 18:51 W 5 10 Mostly Clear FEW015 71 63     76%   71 29.91 29.9      
Sep 17 17:51 WNW 7 10 Mostly Clear FEW015 73 62     68%   73 29.91 29.91      
Sep 17 16:51 NW 8 10 Mostly Clear FEW015 74 62     66%   74 29.91 29.91      
Sep 17 15:51 NW 8 10 Mostly Clear FEW015 76 63     64%   76 29.93 29.93      
Sep 17 14:51 W 9 10 Mostly Clear FEW015 76 64     67%   76 29.94 29.94      
Sep 17 13:51 W 9 10 Mostly Clear FEW017 75 62     64%   75 29.96 29.96      
Sep 17 12:51 W 10 10 Mostly Clear FEW017 76 62     62%   76 29.97 29.97      
Sep 17 11:51 7 10 Mostly Clear FEW017 76 60     58%   76 29.98 29.98      
Sep 17 10:51 S 8 10 Clear CLR 75 61     62%   75 29.99 29.98      
Sep 17 09:51 WSW 3 10 Mostly Clear FEW017 73 63     71%   73 30 30      
Sep 17 08:51 WSW 3 10 Mostly Clear FEW017 71 63     76%   71 29.99 29.99      
Sep 17 07:51 SW 5 9 Mostly Clear FEW017 70 63     78%     29.98 29.98      
Sep 17 07:18 6 10 Partly Cloudy SCT017 69 63     81%     29.98        
Sep 17 06:51 6 9 Mostly Cloudy BKN017 69 63     81%     29.97 29.97      
Sep 17 06:29 WSW 5 10 Mostly Cloudy BKN016 70 63     78%     29.96        
Sep 17 05:51 Calm 10 Mostly Cloudy BKN014 68 64     87%     29.95 29.95      
Sep 17 05:14 Calm 10 Mostly Cloudy BKN014 68 64     87%     29.94        
Sep 17 04:51 Calm 10 Partly Cloudy SCT014 69 63     81%     29.93 29.93      
Sep 17 04:38 Calm 10 Partly Cloudy SCT014 68 63     84%     29.93        
Sep 17 03:51 Calm 10 Mostly Cloudy BKN014 67 64     90%     29.93 29.93      
Sep 17 03:18 Calm 10 Mostly Cloudy BKN014 67 64     90%     29.93        
Sep 17 02:51 N 3 10 Mostly Clear FEW015 67 64     90%     29.94 29.93      
Sep 17 01:51 WNW 5 10 Mostly Clear FEW015 67 64     90%     29.94 29.93      
Sep 17 00:51 W 3 10 Mostly Clear FEW015 69 65     87%     29.93 29.93      
Sep 16 23:51 Calm 10 Partly Cloudy SCT015 69 65     87%     29.93 29.93      
Sep 16 22:51 WNW 3 10 Mostly Clear FEW015 69 65     87%     29.93 29.93      
Sep 16 21:51 Calm 10 Mostly Clear FEW250 71 66     84%   72 29.92 29.92      
Sep 16 20:51 NW 5 10 Partly Cloudy FEW160 SCT250 70 65     84%     29.92 29.92      
Sep 16 19:51 W 5 10 Mostly Cloudy SCT160 BKN250 71 66     84%   72 29.9 29.9      
Sep 16 18:51 5 10 Mostly Cloudy SCT160 BKN250 72 66     82%   73 29.89 29.89      
Sep 16 16:51 NW 8 10 Partly Cloudy FEW010 FEW150 SCT250 76 65     69%   76 29.9 29.9      
May 13 18:51 WNW 10 10 Partly Cloudy FEW022 SCT040 64 50     60%     30 29.99      
May 11 19:01 SSW 10 10 Cloudy BKN014 BKN025 OVC031 59 53     81%     29.89        
Jun 12 02:51 S 6 10 Cloudy BKN024 OVC032 62 53     72%     30.01 30.01      
Jun 11 15:51 SSW 11 10 Mostly Cloudy BKN024 64 52     65%     29.97 29.97      
Jun 10 23:51 S 6 10 Clear   62 54     75%     29.92 29.92      
Jun 10 12:51 WSW 11 10 Cloudy FEW010 OVC019 65 55     70%     29.95 29.94      
Jun 10 02:38 W 6 10 Cloudy SCT007 OVC011 65 61     87%     29.92        
Jun 10 00:14 W 6 10 Mostly Cloudy BKN009 BKN015 65 62     90%     29.94        
Jun 09 13:51 WNW 11 10 Mostly Clear FEW020 71 58     63%   71 29.95 29.95      
Jun 09 09:51 SSW 6 10 Mostly Clear FEW020 FEW250 67 55     66%     29.98 29.97      
Jun 08 23:51 NNW 7 10 Cloudy OVC014 65 58     78%     29.98 29.98      
Notice The following observation data may not be complete
Jun 08 09:39   10 Mostly Cloudy SCT024 BKN250          %              
Jun 06 09:51 WSW 6 8 Cloudy FEW008 OVC010 63 60     90%     29.97 29.96      
Jun 05 15:51 SSW 10 10 Cloudy BKN012 OVC015 65 58     78%     29.89 29.89